RH
42 39 37 60 63 51 49 51 64 54 79 86 83 67 63 54 34 30 90 92 100 97 71 41 55 42 39 55 76 98 76 74 83 80 94 100 88 77 77 90 61 52 55 51
59 56 58 69 68 73 68 66 68 91 88 94 94 100 81 76 60 40 24 82 89 100 100 100 100 100 91 100 94 85 100 100 100 94 92 100 100 100 100 97 94 79 71 62
74 80 83 86 90 94 84 82 98 90 100 90 69 84 100 93 76 70 39 31 40 49 46 57 64 84 100 100 100 100 78 100 100 100 100 100 100 95 81 97 100 100 100 88
84 94 94 98 97 100 100 100 100 100 100 100 100 96 100 100 100 95 100 72 54 47 60 100 100 94 72 72 94 100 97 100 100 99 67 71 86 100 84 100 100 100 100 100
89 100 100 100 100 100 100 100 100 100 100 100 100 100 100 100 100 100 100 82 67 60 59 100 100 100 100 100 100 100 100 82 100 100 100 100 100 100 100 97 100 100 100 100
100 100 100 100 100 100 96 100 100 100 100 86 100 100 100 100 90 100 100 100 100 100 100 100 100 100 100 100 100 100 100 100 100 100 100 100 100 100 100 100 100 100 98 72
100 100 100 100 100 100 100 100 100 100 100 100 100 100 100 100 88 75 72 63 100 100 100 100 97 96 92 90 77 65 66 60 78 99 100 100 95 97 97 100 86 68 86 89
100 95 100 100 100 100 100 100 100 95 100 100 100 100 100 100 100 97 98 95 57 100 77 95 100 97 92 94 73 50 60 51 38 71 93 96 89 84 81 56 56 66 84 90
100 100 100 100 100 100 100 100 100 82 62 82 99 100 100 100 100 100 100 100 77 72 98 85 77 58 46 55 92 100 98 74 85 81 71 73 61 55 60 62 86 96 94 93
100 100 100 100 100 100 92 100 82 71 60 94 100 99 97 100 100 100 100 100 100 90 65 76 79 99 100 99 87 81 79 83 91 89 87 86 74 88 100 100 100 100 90 94
90 100 100 100 85 77 77 72 69 91 97 100 100 98 100 100 100 100 100 100 100 95 90 100 100 97 94 86 78 64 58 64 78 97 97 89 88 99 97 100 100 100 100 100
96 100 100 78 86 96 84 76 79 94 88 100 100 82 100 97 96 100 100 100 81 84 85 64 71 63 65 67 66 63 57 65 73 92 100 100 100 100 91 84 77 74 86 87
73 63 83 76 70 88 99 100 95 84 84 86 82 80 100 100 90 90 93 100 100 100 100 91 96 100 100 95 100 100 100 100 100 95 80 75 70 79 77 79 82 80 78 73
40 57 63 59 63 88 97 96 100 93 89 84 75 84 98 100 98 91 89 85 96 100 100 100 100 100 100 99 100 100 97 90 96 96 85 83 81 74 61 59 57 53 55 58
31 30 34 35 33 43 65 86 95 91 90 89 91 81 95 100 94 83 76 66 66 80 80 89 100 100 100 87 92 100 94 97 100 100 100 97 99 76 67 72 69 70 68 68
18 18 20 17 22 23 28 33 40 72 91 93 99 84 100 100 100 84 84 82 63 67 59 100 100 90 88 72 93 100 96 91 96 94 88 80 66 62 71 73 69 61 60 61
13 14 16 13 17 18 15 20 27 30 47 70 82 85 91 77 96 95 92 96 87 78 71 93 98 76 76 76 87 97 96 90 85 85 76 71 72 67 64 60 65 65 58 41
13 14 14 14 16 13 16 19 18 26 31 35 30 39 49 47 68 66 65 69 97 94 83 91 88 81 91 97 96 93 92 88 88 83 77 72 73 76 71 67 61 42 23 11
10 11 11 10 12 11 13 20 22 20 23 20 24 20 23 30 38 39 58 78 99 96 87 87 89 95 94 93 96 96 95 91 90 77 73 78 82 72 62 50 30 13 12 12
12 11 12 12 11 11 14 20 24 24 14 23 23 21 20 30 36 28 50 87 83 88 98 92 86 89 90 87 85 90 92 85 77 84 85 82 64 50 32 16 15 17 18 19
20 20 17 18 18 14 18 16 18 18 16 17 21 22 35 52 62 57 44 38 58 67 67 87 93 95 95 94 89 87 80 89 84 73 64 49 30 20 18 22 27 28 27 25
16 15 15 18 13 10 11 10 10 17 19 16 20 26 50 45 23 23 31 38 43 58 68 77 83 82 77 76 78 83 83 76 58 43 30 21 24 30 36 36 34 33 27 19
13 12 13 9 8 11 10 10 12 11 18 14 17 17 25 31 28 24 25 33 43 45 52 59 58 50 59 57 49 40 40 40 28 22 31 38 43 46 39 39 33 27 25 25
11 10 11 13 13 10 9 9 8 15 19 17 12 13 14 18 20 19 17 18 24 33 39 35 39 49 48 43 39 31 22 28 37 50 56 53 47 45 40 36 36 40 42 32
11 9 13 14 12 9 12 11 11 12 14 14 13 14 15 15 16 18 19 20 23 26 30 40 41 40 32 25 28 37 51 63 68 61 54 50 48 40 39 47 52 52 47 40
10 10 9 10 9 10 11 11 14 11 13 14 15 14 14 16 17 17 19 23 25 26 26 23 22 25 36 52 62 74 78 67 59 53 53 50 39 44 57 63 62 52 50 48
Wind_Speed
66 63 61 74 67 60 58 62 55 62 58 57 54 52 53 50 46 56 55 54 59 60 58 58 68 71 66 67 63 62 63 62 63 67 69 70 70 66 64 61 66 69 60 61
71 64 73 78 73 70 62 66 65 67 70 65 58 59 58 58 54 56 55 67 63 58 58 63 65 67 65 68 68 67 71 70 71 72 73 71 65 63 62 65 68 64 65 66
82 78 76 78 80 78 72 74 72 70 71 68 67 65 66 67 63 58 57 63 71 68 67 65 67 65 68 69 72 70 70 71 73 73 71 69 65 65 68 71 69 68 71 70
79 90 87 83 82 87 77 82 80 76 76 71 77 66 65 67 71 68 65 61 72 73 67 66 74 74 76 76 74 72 74 72 72 80 82 76 71 70 75 73 73 74 76 75
81 89 91 87 83 87 84 86 83 84 80 82 76 85 64 71 71 77 75 71 77 81 74 70 78 82 80 78 78 76 77 82 85 82 81 79 78 75 75 78 77 78 78 80
94 96 96 96 90 91 86 92 93 88 90 94 79 98 68 78 83 82 78 78 78 88 84 80 78 79 81 85 85 85 82 84 82 79 81 78 77 78 80 81 81 83 84 85
104 100 101 104 99 92 93 93 98 96 97 97 91 99 85 84 96 90 93 85 86 88 89 90 89 89 85 87 86 88 89 87 90 90 87 82 81 79 80 82 82 81 81 83
110 107 110 116 111 108 107 106 107 107 105 102 95 95 89 91 94 90 96 93 89 91 93 92 91 93 90 91 90 91 90 91 91 90 87 87 87 86 84 84 84 83 83 86
116 111 119 119 119 118 116 122 116 123 108 112 104 100 98 100 101 98 96 101 96 94 95 97 96 97 96 93 89 86 87 90 89 90 91 90 91 91 89 88 89 90 91 92
117 119 119 124 121 122 120 122 124 124 111 111 108 106 106 105 109 101 99 97 96 95 98 98 94 91 90 91 94 94 91 90 93 91 90 90 91 90 90 92 94 96 97 97
121 123 120 127 123 125 127 123 117 118 115 111 110 103 108 107 107 105 103 100 99 98 97 91 93 100 96 95 96 94 93 90 90 91 92 94 94 94 95 97 97 97 98 99
126 126 128 126 124 123 120 118 113 112 111 113 113 106 109 106 106 97 97 97 102 103 102 102 98 98 97 96 95 94 93 92 93 94 96 98 100 102 105 107 108 108 108 109
128 127 126 123 121 115 115 115 115 112 109 111 111 102 98 103 104 103 103 104 103 99 95 93 94 93 92 91 92 93 92 96 98 98 101 104 105 107 108 110 112 112 113 114
119 118 117 114 113 110 111 113 115 113 112 111 109 105 100 99 102 104 107 107 107 104 93 92 94 94 96 96 95 99 102 100 101 103 104 106 108 109 108 108 109 109 110 111
111 109 108 107 105 105 110 110 112 111 109 112 110 108 99 98 102 105 109 111 110 109 106 100 98 96 100 101 100 103 103 104 104 107 107 106 107 110 109 110 110 109 110 112
97 94 100 99 96 99 101 104 102 109 112 113 112 108 100 99 102 108 109 111 113 105 103 95 99 102 103 104 98 102 103 103 104 105 105 107 107 107 108 108 106 106 106 107
88 87 90 89 90 94 94 82 94 101 104 106 107 105 103 101 102 104 104 98 101 103 96 90 98 103 103 101 99 100 101 102 103 104 105 104 104 102 100 100 101 104 105 104
80 81 82 81 83 83 74 81 81 93 95 96 96 99 97 96 97 102 97 94 97 99 100 91 96 95 92 94 95 97 100 101 102 102 101 99 99 99 100 100 101 99 95 88
73 75 76 76 77 70 65 61 81 85 86 82 90 88 82 86 92 87 88 92 93 96 99 96 94 92 92 93 94 96 97 98 99 99 97 98 99 98 97 96 91 83 80 77
65 62 67 64 70 63 50 60 74 81 77 71 83 77 74 79 81 81 83 90 93 92 95 95 93 92 93 93 92 94 96 96 94 97 98 97 93 89 84 77 75 73 72 70
57 59 58 55 61 54 49 58 70 78 66 68 71 65 68 68 75 79 77 78 82 86 84 87 91 92 93 93 91 92 90 94 94 92 88 82 75 70 68 68 68 69 69 67
57 55 53 56 57 45 52 51 58 64 66 61 62 56 64 65 68 62 66 69 70 76 78 80 82 83 82 80 83 85 86 86 81 72 66 62 61 61 62 63 65 64 63 62
49 51 51 49 43 38 46 48 50 52 59 52 55 53 56 58 61 59 59 62 65 65 67 68 69 68 68 69 69 66 62 58 56 53 52 53 55 57 59 60 59 59 57 56
45 47 39 42 41 37 40 43 38 36 46 50 51 48 49 51 54 54 53 50 50 53 54 55 53 55 54 54 54 51 47 44 44 45 48 50 53 56 55 54 52 53 52 53
42 38 38 34 38 35 33 35 34 39 40 42 41 44 47 48 46 44 44 42 43 44 43 45 46 47 46 43 39 37 37 39 41 44 48 51 51 50 50 47 47 47 48 48
33 32 30 34 34 29 33 34 37 34 33 31 34 36 37 36 36 34 33 35 37 38 39 38 37 34 32 32 33 33 36 40 44 47 48 48 47 46 43 44 45 46 46 47
Wind_Direction
267 273 276 270 272 273 273 275 276 270 272 289 284 275 279 286 291 283 281 281 280 280 279 288 288 288 293 294 293 297 298 297 296 296 294 297 295 293 292 292 299 302 300 304
265 265 266 268 272 276 274 272 275 270 275 281 289 280 276 276 280 291 281 277 272 280 284 288 289 289 289 291 294 294 295 293 293 294 294 293 291 287 287 293 298 296 299 300
262 261 265 267 271 273 278 277 274 271 272 276 281 282 284 274 271 275 277 276 276 272 275 280 282 281 283 289 291 290 292 293 292 293 295 294 293 293 292 293 292 294 296 296
269 263 264 271 273 271 274 274 275 274 274 275 280 276 280 279 273 271 272 272 273 275 275 276 274 277 279 280 280 282 285 287 290 291 290 289 290 290 291 290 292 292 292 293
272 266 268 270 273 272 272 272 274 273 272 271 277 278 274 274 275 272 270 269 274 273 272 274 275 272 273 274 280 280 280 284 289 289 287 289 289 288 288 287 288 289 289 290
272 266 266 268 268 271 269 271 271 270 274 273 275 274 272 273 270 269 270 270 269 273 274 274 273 276 279 280 282 282 282 282 282 281 284 285 284 287 288 289 288 288 289 290
267 266 266 267 266 264 267 271 270 271 275 274 271 271 275 272 273 276 270 270 269 269 274 275 276 278 277 280 281 283 283 283 283 284 285 285 285 286 285 285 285 286 289 290
266 266 262 261 263 263 265 266 270 269 270 270 269 273 277 274 273 271 272 271 269 271 270 273 277 280 282 282 282 281 281 281 283 281 283 284 284 284 284 285 284 286 286 285
263 264 264 260 261 263 266 268 269 272 272 267 267 268 271 276 272 270 270 272 272 272 275 273 273 276 278 280 282 281 282 282 280 280 280 281 282 284 285 286 286 286 286 286
264 264 261 263 264 265 265 267 271 273 271 265 265 267 269 270 273 272 274 274 274 273 273 275 276 278 277 277 279 281 282 281 280 281 282 282 284 285 284 284 283 284 286 287
262 263 264 263 263 266 269 270 269 267 267 266 266 265 266 266 268 271 271 271 271 271 272 272 272 275 279 281 282 280 280 279 278 278 278 280 282 282 281 281 282 283 284 284
260 261 263 266 266 268 268 269 266 266 266 263 265 267 270 269 267 268 269 267 270 271 271 274 275 276 277 278 279 280 281 280 279 279 279 281 281 280 281 282 282 282 281 282
262 262 262 265 265 265 265 264 265 265 265 263 264 265 268 266 267 268 268 267 272 271 269 271 273 271 271 275 275 277 277 277 278 277 278 279 280 281 282 282 282 283 283 284
263 261 262 263 264 264 264 262 264 264 263 265 265 264 262 266 265 266 266 267 268 269 269 271 269 270 269 271 271 271 275 275 276 278 279 280 281 283 284 284 285 286 286 286
263 263 263 263 262 260 260 258 260 262 263 264 265 263 262 263 264 265 266 266 264 268 270 271 271 270 270 274 272 270 275 275 275 276 279 281 282 285 286 287 288 288 287 288
263 264 264 262 260 258 258 260 262 261 260 260 262 262 263 264 263 263 264 267 269 269 268 271 271 271 272 274 271 271 273 274 276 277 279 283 284 285 286 286 287 288 289 289
263 261 261 262 259 259 261 261 258 260 260 261 262 265 264 263 262 262 262 265 266 266 266 266 269 270 272 271 271 272 273 274 277 279 281 283 285 287 288 289 289 291 291 290
263 261 260 260 258 258 259 257 259 257 258 259 261 261 261 262 262 263 266 263 260 264 267 266 268 271 271 272 272 273 274 277 279 281 283 285 288 290 290 291 291 291 291 291
262 261 261 261 261 258 257 259 256 256 254 258 259 259 260 260 260 264 262 263 262 263 267 269 270 270 271 271 272 274 276 279 281 283 285 288 290 291 290 291 292 292 292 294
263 262 261 261 262 260 253 252 256 255 258 255 256 259 262 261 261 262 261 260 261 262 265 267 269 269 270 272 273 275 278 281 283 284 288 290 289 289 291 291 292 294 297 298
262 260 261 259 260 257 250 246 249 254 256 257 259 259 258 259 258 259 259 263 263 264 263 264 268 270 271 273 276 278 280 282 284 287 289 288 289 290 291 294 296 298 298 299
257 257 260 256 258 258 252 249 251 254 258 254 256 257 256 255 262 262 264 263 264 265 266 267 268 271 273 277 278 280 281 283 285 285 286 288 289 291 293 295 297 299 299 299
253 254 255 259 261 255 252 248 246 248 255 259 258 254 253 256 261 262 257 258 260 263 266 268 270 273 277 278 278 280 281 282 282 284 287 288 290 292 295 297 299 299 300 303
250 255 255 258 256 250 249 252 251 249 249 252 254 255 253 253 256 262 264 263 262 262 264 268 273 273 273 274 277 278 278 280 284 284 285 288 291 295 298 298 298 301 305 307
251 254 250 248 252 248 248 251 251 245 243 248 252 253 257 260 261 262 263 262 262 264 267 266 266 269 272 272 273 275 279 281 281 284 289 293 295 297 296 296 299 303 305 308
247 248 247 244 246 245 240 236 239 246 245 247 254 255 256 258 258 259 259 259 258 257 259 262 264 265 266 270 273 277 278 281 286 290 293 294 295 293 293 297 300 304 307 311